Regional Weather Roundup
Issued by NWS Upton, NY

Current Version | Previous Version | Text Only | Print | Product List | Glossary Off
Versions: 1 2 3 4 5 6 7 8 9 10 11 12 13 14 15 16 17 18 19 20 21 22 23 24 25 26 27 28 29 30 31 32 33 34 35 36 37 38 39 40 41 42 43 44 45 46 47 48 49 50
000 ASUS41 KOKX 281304 RWROKX REGIONAL WEATHER ROUNDUP NATIONAL WEATHER SERVICE NEW YORK NY 900 AM EDT FRI AUG 28 2015 NOTE: "FAIR" INDICATES FEW OR NO CLOUDS BELOW 12,000 FEET WITH NO SIGNIFICANT WEATHER AND/OR OBSTRUCTIONS TO VISIBILITY. NYZ071-072-176-178-NJZ106-104-281400- NEW YORK CITY METRO AREA CITY SKY/WX TMP DP RH WIND PRES REMARKS CENTRAL PARK SUNNY 68 53 58 CALM 30.21R LAGUARDIA APRT MOSUNNY 70 55 59 N5 30.17S KENNEDY INTL MOSUNNY 71 55 56 N9 30.18S NEWARK/LIBERTY MOSUNNY 72 52 49 N5 30.18R BRNX BOT. GARD N/A 70 57 64 N1 30.20R TETERBORO SUNNY 69 53 56 VRB3 30.17S $$ NYZ177-179-078>081-281400- LONG ISLAND NEW YORK CITY SKY/WX TMP DP RH WIND PRES REMARKS FARMINGDALE SUNNY 70 54 56 N9 30.17S ISLIP MOSUNNY 71 55 56 N9 30.15R SHIRLEY SUNNY 71 58 63 N9 30.17R WESTHAMPTON SUNNY 72 58 61 NW9 30.17R MONTAUK POINT N/A 69 59 70 N7 30.16R $$ NYZ052-065-067-281400- HUDSON VALLEY CITY SKY/WX TMP DP RH WIND PRES REMARKS WHITE PLAINS SUNNY 67 53 61 N12 30.18R NEWBURGH SUNNY 63 57 82 CALM 30.20S MONTGOMERY SUNNY 61 55 81 CALM 30.20R POUGHKEEPSIE SUNNY 63 56 78 CALM 30.18F ALBANY MOSUNNY 65 55 70 N5 30.20R $$ NJZ001-105-106-008-010-013-015-019>022-104-281400- NEW JERSEY CITY SKY/WX TMP DP RH WIND PRES REMARKS NEWARK/LIBERTY MOSUNNY 72 52 49 N5 30.18R TETERBORO SUNNY 69 53 56 VRB3 30.17S CALDWELL SUNNY 66 54 65 CALM 30.19S MORRISTOWN MOSUNNY 70 59 68 N6 30.19S SOMERVILLE SUNNY 66 55 67 N3 30.18R SUSSEX SUNNY 62 56 80 CALM 30.21R ANDOVER N/A 62 56 80 E3 30.21R TRENTON SUNNY 68 55 63 N6 30.19R MILLVILLE SUNNY 70 56 61 N5 30.19R ATLANTIC CITY SUNNY 70 56 61 N5 30.18R WRIGHTSTOWN SUNNY 68 57 68 N5 30.16S TOMS RIVER SUNNY 66 55 68 N6 30.18S BELMAR SUNNY 68 54 60 NW7 30.18R $$ PAZ047>061-062-071-281400- EASTERN PENNSYLVANIA CITY SKY/WX TMP DP RH WIND PRES REMARKS PHILADELPHIA MOSUNNY 73 53 49 VRB6 30.19S ALLENTOWN SUNNY 64 56 75 CALM 30.21R SCRANTON SUNNY 62 53 72 CALM 30.23R $$ CTZ002-004>006-009-010-012-RIZ004-006-007-MAZ004-011-015-281400- SOUTHERN NEW ENGLAND IN CT CITY SKY/WX TMP DP RH WIND PRES REMARKS BRADLEY INTL MOSUNNY 66 56 70 VRB5 30.16R HARTFORD SUNNY 67 56 67 N5 30.16S DANBURY SUNNY 66 53 63 N6 30.19S WTRBRY/OXFORD NOT AVBL BRIDGEPORT SUNNY 70 55 59 N8 30.16S MERIDEN SUNNY 68 55 63 N3 30.17R NEW HAVEN SUNNY 67 56 67 N8 30.16S CHESTER NOT AVBL GROTON SUNNY 70 58 65 N12 30.14S WILLIMANTIC SUNNY 65 57 75 CALM 30.16S IN RI CITY SKY/WX TMP DP RH WIND PRES REMARKS PROVIDENCE MOSUNNY 70 56 61 N10 30.15R BLOCK ISLAND SUNNY 68 59 73 NE7 30.15R WESTERLY SUNNY 70 57 63 N7 30.15R IN MA CITY SKY/WX TMP DP RH WIND PRES REMARKS BOSTON MOSUNNY 69 55 60 NW5 30.15R WORCESTER SUNNY 65 53 65 N7 30.17R WESTFIELD SUNNY 65 55 70 N6 30.17S PROVINCETOWN SUNNY 70 57 64 N9 30.14R NANTUCKET SUNNY 73 61 65 N12 30.12S $$ ANZ330-335-338-340-345-350-353-355-281400- COASTAL MARINE OBSERVATIONS STATION/POSITION TIME SKY/WX TEMP WIND PRES VSBY WAVE AIR SEA DIR/SP/G HT/PER (UTC) (F) (DEG/KT/KT) (MB) (MI) (FT/S) NY HARB ENTRANCE 1150 69 75 360/ 8/ 10 1021.0 2/10 4S FIRE IS NOT AVBL 20S FIRE ISLAND 1150 69 74 360/ 10/ 14 1020.8 3/10 GREAT SOUTH BAY 1200 67 77 20/ 2/ 6 N/A 23SW MTP 1250 68 72 10/ 6/ 8 1020.4 3/11 HUDSON CANYON NOT AVBL KINGS POINT 1200 67 72 30/ 5/ 9 1021.0 EXECUTION ROCKS 1200 65 320/ 6/ 8 N/A CENTRAL LI SOUND NOT AVBL EASTERN LI SOUND 1200 71 71 360/ 12/ 14 N/A ROBBINS REEF 1200 65 350/ 7/ 8 1020.7 $$ >>>>>>>>>>>>>>>>>>>>>>>>>>>> KEY <<<<<<<<<<<<<<<<<<<<<<<<<<< > < > SKY/WX - SKY CONDITION/PRESENT WEATHER < > TMP - TEMPERATURE IN FAHRENHEIT < > DP - DEWPOINT IN FAHRENHEIT < > RH - RELATIVE HUMIDITY IN PERCENT < > WIND - DIRECTION AND SPEED IN MPH < > PRES - MEAN SEA LEVEL PRESSURE IN INCHES OF HG < > WCI - WIND CHILL INDEX < > VSB - VISIBILITY IN MILES < > HX - HEAT INDEX < > TC - TEMPERATURE IN CELSIUS < > VRB - VARIABLE WIND DIRECTION < > < >>>>>>>>>>>>>>>>>>>>>>>>>>>> KEY <<<<<<<<<<<<<<<<<<<<<<<<<<<

USA.gov is the U.S. government's official web portal to all federal, state and local government web resources and services.